,,Stat6,,Stat2,,Stat8,,Stat9,,Stat10,,Wind1,,Wind1,
time,status,PA1M_AVG,status,PR1M_SUM,status,RH1M_AVG,status,SR1M_AVG,status,TA1M_AVG,status,W1dAve1m,status,W1sAve1m,
2008-01-02, 00:00:00,VALID,917.457,VALID,0,VALID,98.4858,VALID,0.0509425,VALID,18.6596,VALID,138,VALID,0.768601,
2008-01-02, 00:01:00,VALID,917.471,VALID,0,VALID,98.7019,VALID,0.0339617,VALID,18.6563,VALID,138,VALID,0.714026,
2008-01-02, 00:02:00,VALID,917.491,VALID,0,VALID,98.7388,VALID,0.0679233,VALID,18.6721,VALID,143,VALID,0.486421,
2008-01-02, 00:03:00,VALID,917.512,VALID,0,VALID,98.7439,VALID,0.0849042,VALID,18.705,VALID,158,VALID,0.361793,
2008-01-02, 00:04:00,VALID,917.535,VALID,0,VALID,98.6473,VALID,0.0679233,VALID,18.7311,VALID,175,VALID,0.356179,
2008-01-02, 00:05:00,VALID,917.554,VALID,0,VALID,98.3497,VALID,0.0339617,VALID,18.7444,VALID,194,VALID,0.48274,
2008-01-02, 00:06:00,VALID,917.539,VALID,0,VALID,98.323,VALID,0.0849042,VALID,18.7501,VALID,245,VALID,0.76835,
2008-01-02, 00:07:00,VALID,917.525,VALID,0,VALID,98.2696,VALID,0.0509425,VALID,18.7663,VALID,241,VALID,0.415968,
2008-01-02, 00:08:00,VALID,917.497,VALID,0,VALID,98.1653,VALID,0.0169808,VALID,18.8157,VALID,233,VALID,0.0158067,
2008-01-02, 00:09:00,VALID,917.492,VALID,0,VALID,97.9148,VALID,0.0849042,VALID,18.8412,VALID,202,VALID,0,
2008-01-02, 00:10:00,VALID,917.458,VALID,0,VALID,97.6516,VALID,0.0339617,VALID,18.8674,VALID,201,VALID,0.392578,
2008-01-02, 00:11:00,VALID,917.437,VALID,0,VALID,97.4431,VALID,0.0679233,VALID,18.8866,VALID,200,VALID,0.608467,
2008-01-02, 00:12:00,VALID,917.417,VALID,0,VALID,97.1824,VALID,-0.0339617,VALID,18.8871,VALID,200,VALID,0.641715,
2008-01-02, 00:13:00,VALID,917.392,VALID,0,VALID,96.9789,VALID,-0.101885,VALID,18.8848,VALID,200,VALID,0.476017,
2008-01-02, 00:14:00,VALID,917.373,VALID,0,VALID,96.8785,VALID,-0.0339617,VALID,18.8621,VALID,200,VALID,0.330078,
2008-01-02, 00:15:00,VALID,917.348,VALID,0,VALID,96.8683,VALID,-0.0339617,VALID,18.8331,VALID,200,VALID,0,
2008-01-02, 00:16:00,VALID,917.328,VALID,0,VALID,96.9344,VALID,-0.0509425,VALID,18.8002,VALID,200,VALID,0.193714,
2008-01-02, 00:17:00,VALID,917.337,VALID,0,VALID,96.9777,VALID,-0.0169808,VALID,18.7905,VALID,200,VALID,0.127344,
2008-01-02, 00:18:00,VALID,917.341,VALID,0,VALID,97.0743,VALID,-0.0509425,VALID,18.784,VALID,200,VALID,0,
2008-01-02, 00:19:00,VALID,917.34,VALID,0,VALID,97.1302,VALID,0,VALID,18.7773,VALID,200,VALID,0.000181686,
2008-01-02, 00:20:00,VALID,917.356,VALID,0,VALID,97.162,VALID,-0.0679233,VALID,18.7775,VALID,200,VALID,0.0514915,
2008-01-02, 00:21:00,VALID,917.372,VALID,0,VALID,97.1341,VALID,-0.0509425,VALID,18.778,VALID,200,VALID,0,
2008-01-02, 00:22:00,VALID,917.387,VALID,0,VALID,97.1404,VALID,-0.0339617,VALID,18.7777,VALID,200,VALID,0,
2008-01-02, 00:23:00,VALID,917.382,VALID,0,VALID,97.1684,VALID,0,VALID,18.7842,VALID,200,VALID,0,
2008-01-02, 00:24:00,VALID,917.377,VALID,0,VALID,97.0845,VALID,-0.0339617,VALID,18.781,VALID,200,VALID,0,
2008-01-02, 00:25:00,VALID,917.375,VALID,0,VALID,97.0133,VALID,-0.0169808,VALID,18.7845,VALID,200,VALID,0,
2008-01-02, 00:26:00,VALID,917.393,VALID,0,VALID,96.9751,VALID,0,VALID,18.7872,VALID,200,VALID,0,
2008-01-02, 00:27:00,VALID,917.406,VALID,0,VALID,96.8657,VALID,-0.0169808,VALID,18.7935,VALID,200,VALID,0,
2008-01-02, 00:28:00,VALID,917.428,VALID,0,VALID,96.6381,VALID,-0.0169808,VALID,18.7747,VALID,200,VALID,0.396839,
2008-01-02, 00:29:00,VALID,917.446,VALID,0,VALID,96.6928,VALID,-0.0509425,VALID,18.7057,VALID,16,VALID,1.05078,
2008-01-02, 00:30:00,VALID,917.445,VALID,0,VALID,96.9675,VALID,-0.0339617,VALID,18.6769,VALID,33,VALID,0.939098,
2008-01-02, 00:31:00,VALID,917.442,VALID,0,VALID,97.1391,VALID,-0.0169808,VALID,18.6313,VALID,54,VALID,0.942406,
2008-01-02, 00:32:00,VALID,917.445,VALID,0,VALID,97.4329,VALID,-0.101885,VALID,18.6026,VALID,71,VALID,1.22051,
2008-01-02, 00:33:00,VALID,917.439,VALID,0,VALID,98.0051,VALID,-0.0339617,VALID,18.6283,VALID,64,VALID,1.17169,
2008-01-02, 00:34:00,VALID,917.442,VALID,0,VALID,98.2607,VALID,0,VALID,18.7057,VALID,53,VALID,0.988567,
2008-01-02, 00:35:00,VALID,917.42,VALID,0,VALID,98.0928,VALID,-0.0169808,VALID,18.7353,VALID,50,VALID,0.762607,
2008-01-02, 00:36:00,VALID,917.419,VALID,0,VALID,97.9237,VALID,-0.0339617,VALID,18.7119,VALID,50,VALID,0.718559,
2008-01-02, 00:37:00,VALID,917.396,VALID,0,VALID,97.9746,VALID,-0.0169808,VALID,18.7163,VALID,52,VALID,0.959339,
2008-01-02, 00:38:00,VALID,917.357,VALID,0,VALID,98.1056,VALID,-0.0169808,VALID,18.7161,VALID,65,VALID,1.12538,
2008-01-02, 00:39:00,VALID,917.333,VALID,0,VALID,98.2543,VALID,-0.0679233,VALID,18.7261,VALID,85,VALID,1.31155,
2008-01-02, 00:40:00,VALID,917.304,VALID,0,VALID,98.0369,VALID,-0.0509425,VALID,18.6902,VALID,112,VALID,1.26444,
2008-01-02, 00:41:00,VALID,917.269,VALID,0,VALID,98.0979,VALID,-0.0679233,VALID,18.6383,VALID,134,VALID,1.58612,
2008-01-02, 00:42:00,VALID,917.245,VALID,0,VALID,98.3027,VALID,-0.0339617,VALID,18.5996,VALID,148,VALID,1.76302,
2008-01-02, 00:43:00,VALID,917.23,VALID,0,VALID,98.618,VALID,-0.0849042,VALID,18.5667,VALID,140,VALID,1.7753,
2008-01-02, 00:44:00,VALID,917.198,VALID,0,VALID,99.002,VALID,-0.0849042,VALID,18.5637,VALID,126,VALID,1.75527,
2008-01-02, 00:45:00,VALID,917.16,VALID,0,VALID,99.0453,VALID,-0.0849042,VALID,18.5936,VALID,116,VALID,1.40739,
2008-01-02, 00:46:00,VALID,917.124,VALID,0,VALID,98.9601,VALID,-0.0849042,VALID,18.5966,VALID,108,VALID,1.34872,
2008-01-02, 00:47:00,VALID,917.096,VALID,0,VALID,98.6702,VALID,-0.101885,VALID,18.6417,VALID,120,VALID,1.19411,
2008-01-02, 00:48:00,VALID,917.086,VALID,0,VALID,98.2645,VALID,-0.101885,VALID,18.7101,VALID,129,VALID,1.33984,
2008-01-02, 00:49:00,VALID,917.073,VALID,0,VALID,97.8118,VALID,-0.0679233,VALID,18.7745,VALID,127,VALID,1.18262,
2008-01-02, 00:50:00,VALID,917.078,VALID,0,VALID,97.3998,VALID,-0.0509425,VALID,18.8428,VALID,128,VALID,1.09914,
2008-01-02, 00:51:00,VALID,917.092,VALID,0,VALID,97.0298,VALID,-0.0849042,VALID,18.8688,VALID,120,VALID,1.08041,
2008-01-02, 00:52:00,VALID,917.1,VALID,0,VALID,96.7805,VALID,-0.0849042,VALID,18.8818,VALID,104,VALID,0.886549,
2008-01-02, 00:53:00,VALID,917.097,VALID,0,VALID,96.6102,VALID,-0.0679233,VALID,18.869,VALID,104,VALID,1.00074,
2008-01-02, 00:54:00,VALID,917.09,VALID,0,VALID,96.6636,VALID,-0.101885,VALID,18.8498,VALID,109,VALID,0.96596,
2008-01-02, 00:55:00,VALID,917.067,VALID,0,VALID,96.7704,VALID,-0.0849042,VALID,18.8137,VALID,109,VALID,0.993459,
2008-01-02, 00:56:00,VALID,917.051,VALID,0,VALID,96.8365,VALID,-0.0679233,VALID,18.7615,VALID,104,VALID,1.1224,
2008-01-02, 00:57:00,VALID,917.051,VALID,0,VALID,96.8925,VALID,-0.0849042,VALID,18.7163,VALID,112,VALID,1.34089,
2008-01-02, 00:58:00,VALID,917.047,VALID,0,VALID,96.9103,VALID,-0.0679233,VALID,18.6839,VALID,120,VALID,0.855196,
2008-01-02, 00:59:00,VALID,917.046,VALID,0,VALID,97.0921,VALID,-0.0509425,VALID,18.6415,VALID,134,VALID,1.17094,
2008-01-02, 01:00:00,VALID,917.041,VALID,0,VALID,97.2269,VALID,-0.0849042,VALID,18.619,VALID,142,VALID,1.07961,
2008-01-02, 01:01:00,VALID,917.054,VALID,0,VALID,97.3197,VALID,-0.0679233,VALID,18.5799,VALID,141,VALID,1.10842,
2008-01-02, 01:02:00,VALID,917.069,VALID,0,VALID,97.499,VALID,-0.0679233,VALID,18.5414,VALID,139,VALID,1.12925,
2008-01-02, 01:03:00,VALID,917.079,VALID,0,VALID,97.6541,VALID,-0.0169808,VALID,18.5088,VALID,134,VALID,0.988372,
2008-01-02, 01:04:00,VALID,917.084,VALID,0,VALID,97.7457,VALID,-0.0679233,VALID,18.4569,VALID,132,VALID,0.865189,
2008-01-02, 01:05:00,VALID,917.087,VALID,0,VALID,97.925,VALID,-0.0509425,VALID,18.4214,VALID,132,VALID,0.972479,
2008-01-02, 01:06:00,VALID,917.099,VALID,0,VALID,98.089,VALID,-0.0679233,VALID,18.379,VALID,132,VALID,0.850565,
2008-01-02, 01:07:00,VALID,917.089,VALID,0,VALID,98.192,VALID,-0.101885,VALID,18.3464,VALID,133,VALID,1.02362,
2008-01-02, 01:08:00,VALID,917.065,VALID,0,VALID,98.3039,VALID,-0.0339617,VALID,18.3366,VALID,130,VALID,1.17168,
2008-01-02, 01:09:00,VALID,917.053,VALID,0,VALID,98.4018,VALID,-0.101885,VALID,18.3301,VALID,132,VALID,1.24814,
2008-01-02, 01:10:00,VALID,917.029,VALID,0,VALID,98.3523,VALID,-0.0169808,VALID,18.3427,VALID,131,VALID,1.17733,
2008-01-02, 01:11:00,VALID,917,VALID,0,VALID,98.3192,VALID,-0.0509425,VALID,18.3299,VALID,133,VALID,1.28214,
2008-01-02, 01:12:00,VALID,916.994,VALID,0,VALID,98.2556,VALID,-0.0339617,VALID,18.3334,VALID,136,VALID,1.32961,
2008-01-02, 01:13:00,VALID,916.984,VALID,0,VALID,98.1933,VALID,-0.0169808,VALID,18.3369,VALID,139,VALID,1.00312,
2008-01-02, 01:14:00,VALID,916.992,VALID,0,VALID,98.1056,VALID,-0.0509425,VALID,18.3498,VALID,141,VALID,1.1052,
2008-01-02, 01:15:00,VALID,916.983,VALID,0,VALID,97.986,VALID,-0.0509425,VALID,18.3554,VALID,142,VALID,1.07031,
2008-01-02, 01:16:00,VALID,916.987,VALID,0,VALID,97.8729,VALID,-0.0339617,VALID,18.3718,VALID,145,VALID,1.05269,
2008-01-02, 01:17:00,VALID,916.991,VALID,0,VALID,97.7228,VALID,-0.0509425,VALID,18.3918,VALID,149,VALID,0.690739,
2008-01-02, 01:18:00,VALID,916.983,VALID,0,VALID,97.6084,VALID,-0.0169808,VALID,18.401,VALID,145,VALID,0.866146,
2008-01-02, 01:19:00,VALID,917.002,VALID,0,VALID,97.5804,VALID,-0.0339617,VALID,18.3876,VALID,144,VALID,0.894259,
2008-01-02, 01:20:00,VALID,917.002,VALID,0,VALID,97.5372,VALID,-0.0679233,VALID,18.3976,VALID,140,VALID,0.945313,
2008-01-02, 01:21:00,VALID,916.988,VALID,0,VALID,97.4125,VALID,-0.0339617,VALID,18.4047,VALID,134,VALID,0.9758,
2008-01-02, 01:22:00,VALID,916.988,VALID,0,VALID,97.3451,VALID,-0.0509425,VALID,18.408,VALID,133,VALID,1.01243,
2008-01-02, 01:23:00,VALID,916.963,VALID,0,VALID,97.3909,VALID,-0.0339617,VALID,18.4172,VALID,128,VALID,1.03294,
2008-01-02, 01:24:00,VALID,916.924,VALID,0,VALID,97.3172,VALID,-0.0509425,VALID,18.4332,VALID,129,VALID,1.16315,
2008-01-02, 01:25:00,VALID,916.912,VALID,0,VALID,97.321,VALID,0,VALID,18.42,VALID,132,VALID,1.12882,
2008-01-02, 01:26:00,VALID,916.905,VALID,0,VALID,97.3375,VALID,0,VALID,18.4362,VALID,129,VALID,1.12222,
2008-01-02, 01:27:00,VALID,916.885,VALID,0,VALID,97.2803,VALID,-0.0169808,VALID,18.4298,VALID,120,VALID,1.18886,
2008-01-02, 01:28:00,VALID,916.901,VALID,0,VALID,97.2218,VALID,-0.0169808,VALID,18.4265,VALID,118,VALID,1.26781,
2008-01-02, 01:29:00,VALID,916.888,VALID,0,VALID,97.2688,VALID,-0.0339617,VALID,18.4038,VALID,129,VALID,1.10347,
2008-01-02, 01:30:00,VALID,916.889,VALID,0,VALID,97.3998,VALID,-0.0339617,VALID,18.4105,VALID,128,VALID,1.04018,
2008-01-02, 01:31:00,VALID,916.896,VALID,0,VALID,97.3566,VALID,-0.0679233,VALID,18.4404,VALID,127,VALID,1.16597,
2008-01-02, 01:32:00,VALID,916.888,VALID,0,VALID,97.3083,VALID,-0.0679233,VALID,18.4726,VALID,127,VALID,1.25,
2008-01-02, 01:33:00,VALID,916.871,VALID,0,VALID,97.1404,VALID,-0.0509425,VALID,18.5081,VALID,130,VALID,1.17676,
2008-01-02, 01:34:00,VALID,916.868,VALID,0,VALID,96.9001,VALID,-0.0849042,VALID,18.5275,VALID,131,VALID,1.26145,
2008-01-02, 01:35:00,VALID,916.86,VALID,0,VALID,96.7449,VALID,-0.0849042,VALID,18.5442,VALID,131,VALID,1.33155,
2008-01-02, 01:36:00,VALID,916.852,VALID,0,VALID,96.6318,VALID,-0.0509425,VALID,18.5372,VALID,138,VALID,1.15149,
2008-01-02, 01:37:00,VALID,916.853,VALID,0,VALID,96.5987,VALID,-0.0339617,VALID,18.537,VALID,135,VALID,1.25618,
2008-01-02, 01:38:00,VALID,916.827,VALID,0,VALID,96.6051,VALID,-0.0339617,VALID,18.5338,VALID,136,VALID,1.2089,
2008-01-02, 01:39:00,VALID,916.803,VALID,0,VALID,96.5593,VALID,-0.0509425,VALID,18.5405,VALID,134,VALID,0.992006,
2008-01-02, 01:40:00,VALID,916.78,VALID,0,VALID,96.4957,VALID,-0.0339617,VALID,18.5338,VALID,127,VALID,0.835379,
2008-01-02, 01:41:00,VALID,916.757,VALID,0,VALID,96.4741,VALID,-0.0169808,VALID,18.5243,VALID,125,VALID,0.623264,
2008-01-02, 01:42:00,VALID,916.724,VALID,0,VALID,96.5008,VALID,-0.0339617,VALID,18.499,VALID,127,VALID,0.114169,
2008-01-02, 01:43:00,VALID,916.713,VALID,0,VALID,96.7119,VALID,-0.0169808,VALID,18.4958,VALID,140,VALID,0,
2008-01-02, 01:44:00,VALID,916.718,VALID,0,VALID,96.8162,VALID,-0.0339617,VALID,18.5016,VALID,145,VALID,0.446354,
2008-01-02, 01:45:00,VALID,916.705,VALID,0,VALID,96.8251,VALID,-0.0339617,VALID,18.5108,VALID,150,VALID,0.827947,
2008-01-02, 01:46:00,VALID,916.714,VALID,0,VALID,96.7526,VALID,-0.0339617,VALID,18.521,VALID,151,VALID,0.845656,
2008-01-02, 01:47:00,VALID,916.724,VALID,0,VALID,96.7259,VALID,-0.0509425,VALID,18.5083,VALID,151,VALID,0.937678,
2008-01-02, 01:48:00,VALID,916.724,VALID,0,VALID,96.8848,VALID,-0.0339617,VALID,18.4888,VALID,152,VALID,0.925249,
2008-01-02, 01:49:00,VALID,916.742,VALID,0,VALID,97.0692,VALID,-0.0509425,VALID,18.4589,VALID,155,VALID,0.931212,
2008-01-02, 01:50:00,VALID,916.753,VALID,0,VALID,97.1633,VALID,-0.0339617,VALID,18.424,VALID,147,VALID,0.790777,
2008-01-02, 01:51:00,VALID,916.76,VALID,0,VALID,97.5206,VALID,-0.0169808,VALID,18.3818,VALID,151,VALID,0.95585,
2008-01-02, 01:52:00,VALID,916.766,VALID,0,VALID,97.8233,VALID,-0.0509425,VALID,18.3556,VALID,148,VALID,1.05378,
2008-01-02, 01:53:00,VALID,916.77,VALID,0,VALID,98.1323,VALID,-0.0509425,VALID,18.3327,VALID,143,VALID,1.20347,
2008-01-02, 01:54:00,VALID,916.765,VALID,0,VALID,98.2887,VALID,-0.0339617,VALID,18.3169,VALID,141,VALID,1.18714,
2008-01-02, 01:55:00,VALID,916.773,VALID,0,VALID,98.4667,VALID,-0.0849042,VALID,18.2975,VALID,139,VALID,1.25534,
2008-01-02, 01:56:00,VALID,916.782,VALID,0,VALID,98.6015,VALID,-0.0849042,VALID,18.2843,VALID,138,VALID,1.34844,
2008-01-02, 01:57:00,VALID,916.788,VALID,0,VALID,98.6816,VALID,-0.0679233,VALID,18.2817,VALID,134,VALID,1.31143,
2008-01-02, 01:58:00,VALID,916.809,VALID,0,VALID,98.8075,VALID,-0.118866,VALID,18.2947,VALID,134,VALID,1.21615,
2008-01-02, 01:59:00,VALID,916.808,VALID,0,VALID,98.913,VALID,-0.0679233,VALID,18.2847,VALID,134,VALID,1.28906,
2008-01-02, 02:00:00,VALID,916.821,VALID,0,VALID,98.9512,VALID,-0.0339617,VALID,18.2975,VALID,138,VALID,1.02065,
2008-01-02, 02:01:00,VALID,916.84,VALID,0,VALID,98.9817,VALID,-0.0679233,VALID,18.291,VALID,148,VALID,0.909339,
2008-01-02, 02:02:00,VALID,916.826,VALID,0,VALID,99.086,VALID,-0.0679233,VALID,18.3139,VALID,147,VALID,1.24638,
2008-01-02, 02:03:00,VALID,916.852,VALID,0,VALID,99.0898,VALID,-0.0679233,VALID,18.3269,VALID,150,VALID,1.00781,
2008-01-02, 02:04:00,VALID,916.85,VALID,0,VALID,99.1279,VALID,-0.0509425,VALID,18.3491,VALID,150,VALID,1.07068,
2008-01-02, 02:05:00,VALID,916.863,VALID,0,VALID,99.1585,VALID,-0.0679233,VALID,18.3654,VALID,154,VALID,0.803961,
2008-01-02, 02:06:00,VALID,916.862,VALID,0,VALID,99.0364,VALID,-0.0169808,VALID,18.3848,VALID,155,VALID,1.06868,
2008-01-02, 02:07:00,VALID,916.867,VALID,0,VALID,99.0046,VALID,-0.0339617,VALID,18.3848,VALID,154,VALID,0.807594,
2008-01-02, 02:08:00,VALID,916.843,VALID,0,VALID,99.0771,VALID,-0.0339617,VALID,18.3915,VALID,146,VALID,0.847284,
2008-01-02, 02:09:00,VALID,916.854,VALID,0,VALID,99.1775,VALID,-0.0509425,VALID,18.4043,VALID,140,VALID,0.858842,
2008-01-02, 02:10:00,VALID,916.847,VALID,0,VALID,99.2322,VALID,-0.0509425,VALID,18.4339,VALID,138,VALID,0.765816,
2008-01-02, 02:11:00,VALID,916.838,VALID,0,VALID,99.2589,VALID,-0.0679233,VALID,18.4467,VALID,139,VALID,0.911882,
2008-01-02, 02:12:00,VALID,916.826,VALID,0,VALID,99.2996,VALID,-0.0679233,VALID,18.4826,VALID,137,VALID,0.987571,
2008-01-02, 02:13:00,VALID,916.824,VALID,0,VALID,99.306,VALID,-0.0169808,VALID,18.5345,VALID,130,VALID,1.07682,
2008-01-02, 02:14:00,VALID,916.797,VALID,0,VALID,99.1445,VALID,-0.0509425,VALID,18.5764,VALID,136,VALID,0.820685,
2008-01-02, 02:15:00,VALID,916.773,VALID,0,VALID,99.0173,VALID,-0.0339617,VALID,18.6281,VALID,130,VALID,1.03427,
2008-01-02, 02:16:00,VALID,916.751,VALID,0,VALID,98.9258,VALID,-0.0849042,VALID,18.6707,VALID,124,VALID,1.22409,
2008-01-02, 02:17:00,VALID,916.711,VALID,0,VALID,98.7401,VALID,-0.0849042,VALID,18.7293,VALID,118,VALID,1.30778,
2008-01-02, 02:18:00,VALID,916.683,VALID,0,VALID,98.4947,VALID,-0.0169808,VALID,18.7708,VALID,118,VALID,1.2965,
2008-01-02, 02:19:00,VALID,916.674,VALID,0,VALID,98.2531,VALID,-0.0679233,VALID,18.8164,VALID,110,VALID,1.07068,
2008-01-02, 02:20:00,VALID,916.662,VALID,0,VALID,98.0242,VALID,-0.0509425,VALID,18.8454,VALID,99,VALID,0.804899,
2008-01-02, 02:21:00,VALID,916.645,VALID,0,VALID,97.8373,VALID,-0.0679233,VALID,18.8553,VALID,96,VALID,0.774926,
2008-01-02, 02:22:00,VALID,916.627,VALID,0,VALID,97.7546,VALID,-0.0849042,VALID,18.872,VALID,96,VALID,0.810826,
2008-01-02, 02:23:00,VALID,916.592,VALID,0,VALID,97.677,VALID,-0.0679233,VALID,18.8785,VALID,108,VALID,0.94184,
2008-01-02, 02:24:00,VALID,916.568,VALID,0,VALID,97.6122,VALID,-0.0509425,VALID,18.8848,VALID,121,VALID,1.16806,
2008-01-02, 02:25:00,VALID,916.518,VALID,0,VALID,97.5664,VALID,-0.0339617,VALID,18.8843,VALID,122,VALID,1.08452,
2008-01-02, 02:26:00,VALID,916.481,VALID,0,VALID,97.5168,VALID,-0.0339617,VALID,18.9008,VALID,121,VALID,0.987674,
2008-01-02, 02:27:00,VALID,916.443,VALID,0,VALID,97.438,VALID,0,VALID,18.916,VALID,122,VALID,0.80451,
2008-01-02, 02:28:00,VALID,916.427,VALID,0,VALID,97.4036,VALID,0.0339617,VALID,18.9153,VALID,126,VALID,0.838356,
2008-01-02, 02:29:00,VALID,916.405,VALID,0,VALID,97.3757,VALID,0.0339617,VALID,18.929,VALID,139,VALID,0.940799,
2008-01-02, 02:30:00,VALID,916.378,VALID,0,VALID,97.3731,VALID,0.0509425,VALID,18.922,VALID,142,VALID,0.916159,
2008-01-02, 02:31:00,VALID,916.348,VALID,0,VALID,97.354,VALID,0.0339617,VALID,18.9549,VALID,141,VALID,1.09091,
2008-01-02, 02:32:00,VALID,916.313,VALID,0,VALID,97.2053,VALID,0.0339617,VALID,18.9579,VALID,136,VALID,1.11579,
2008-01-02, 02:33:00,VALID,916.318,VALID,0,VALID,97.1175,VALID,0.0339617,VALID,18.948,VALID,139,VALID,0.957465,
2008-01-02, 02:34:00,VALID,916.325,VALID,0,VALID,97.1684,VALID,0,VALID,18.9355,VALID,138,VALID,0.981213,
2008-01-02, 02:35:00,VALID,916.363,VALID,0,VALID,97.1582,VALID,0.0169808,VALID,18.9026,VALID,132,VALID,0.661577,
2008-01-02, 02:36:00,VALID,916.387,VALID,0,VALID,97.2485,VALID,-0.0169808,VALID,18.8706,VALID,120,VALID,0.673735,
2008-01-02, 02:37:00,VALID,916.399,VALID,0,VALID,97.41,VALID,0,VALID,18.8282,VALID,119,VALID,0.982887,
2008-01-02, 02:38:00,VALID,916.417,VALID,0,VALID,97.5473,VALID,0.0339617,VALID,18.7921,VALID,115,VALID,0.95206,
2008-01-02, 02:39:00,VALID,916.435,VALID,0,VALID,97.6211,VALID,0.0679233,VALID,18.7529,VALID,126,VALID,1.12062,
2008-01-02, 02:40:00,VALID,916.453,VALID,0,VALID,97.747,VALID,0,VALID,18.7112,VALID,137,VALID,1.12258,
2008-01-02, 02:41:00,VALID,916.45,VALID,0,VALID,97.8563,VALID,0,VALID,18.6925,VALID,139,VALID,1.16388,
2008-01-02, 02:42:00,VALID,916.449,VALID,0,VALID,97.9784,VALID,-0.0509425,VALID,18.6705,VALID,142,VALID,0.993902,
2008-01-02, 02:43:00,VALID,916.441,VALID,0,VALID,98.042,VALID,-0.0509425,VALID,18.6473,VALID,146,VALID,0.763765,
2008-01-02, 02:44:00,VALID,916.445,VALID,0,VALID,98.1374,VALID,-0.0679233,VALID,18.6246,VALID,151,VALID,0.417436,
2008-01-02, 02:45:00,VALID,916.429,VALID,0,VALID,98.1742,VALID,-0.101885,VALID,18.6186,VALID,156,VALID,0.906822,
2008-01-02, 02:46:00,VALID,916.403,VALID,0,VALID,98.2213,VALID,-0.0849042,VALID,18.5963,VALID,156,VALID,0.994851,
2008-01-02, 02:47:00,VALID,916.399,VALID,0,VALID,98.3472,VALID,-0.0849042,VALID,18.5472,VALID,159,VALID,0.974466,
2008-01-02, 02:48:00,VALID,916.387,VALID,0,VALID,98.5227,VALID,-0.118866,VALID,18.5157,VALID,169,VALID,0.811047,
2008-01-02, 02:49:00,VALID,916.385,VALID,0,VALID,98.6638,VALID,-0.0849042,VALID,18.4828,VALID,162,VALID,0.916066,
2008-01-02, 02:50:00,VALID,916.374,VALID,0,VALID,98.824,VALID,-0.101885,VALID,18.4634,VALID,164,VALID,1.11665,
2008-01-02, 02:51:00,VALID,916.368,VALID,0,VALID,98.8901,VALID,-0.101885,VALID,18.4569,VALID,166,VALID,0.779119,
2008-01-02, 02:52:00,VALID,916.367,VALID,0,VALID,98.9474,VALID,-0.101885,VALID,18.4599,VALID,165,VALID,0.69077,
2008-01-02, 02:53:00,VALID,916.354,VALID,0,VALID,98.9944,VALID,-0.118866,VALID,18.4731,VALID,159,VALID,0.955966,
2008-01-02, 02:54:00,VALID,916.364,VALID,0,VALID,98.9881,VALID,-0.0849042,VALID,18.505,VALID,151,VALID,0.895349,
2008-01-02, 02:55:00,VALID,916.376,VALID,0,VALID,98.9931,VALID,-0.101885,VALID,18.5405,VALID,135,VALID,0.945977,
2008-01-02, 02:56:00,VALID,916.395,VALID,0,VALID,98.9219,VALID,-0.101885,VALID,18.6088,VALID,142,VALID,0.850142,
2008-01-02, 02:57:00,VALID,916.401,VALID,0,VALID,98.7617,VALID,-0.0339617,VALID,18.6792,VALID,146,VALID,0.660764,
2008-01-02, 02:58:00,VALID,916.404,VALID,0,VALID,98.5722,VALID,0.0339617,VALID,18.7167,VALID,146,VALID,0.366616,
2008-01-02, 02:59:00,VALID,916.399,VALID,0,VALID,98.351,VALID,0.0169808,VALID,18.7765,VALID,146,VALID,0.54809,
2008-01-02, 03:00:00,VALID,916.385,VALID,0,VALID,98.1615,VALID,0,VALID,18.7988,VALID,146,VALID,0.379002,
2008-01-02, 03:01:00,VALID,916.38,VALID,0,VALID,97.9606,VALID,0,VALID,18.8182,VALID,146,VALID,0.561967,
2008-01-02, 03:02:00,VALID,916.38,VALID,0,VALID,97.8258,VALID,0.0339617,VALID,18.8417,VALID,146,VALID,0.550781,
2008-01-02, 03:03:00,VALID,916.375,VALID,0,VALID,97.7444,VALID,0.0169808,VALID,18.8379,VALID,146,VALID,0.274771,
2008-01-02, 03:04:00,VALID,916.367,VALID,0,VALID,97.6808,VALID,0,VALID,18.8382,VALID,145,VALID,0.517442,
2008-01-02, 03:05:00,VALID,916.333,VALID,0,VALID,97.6783,VALID,0,VALID,18.8349,VALID,140,VALID,0.707589,
2008-01-02, 03:06:00,VALID,916.297,VALID,0,VALID,97.6745,VALID,0.0169808,VALID,18.8087,VALID,138,VALID,0.846112,
2008-01-02, 03:07:00,VALID,916.246,VALID,0,VALID,97.7597,VALID,0,VALID,18.7925,VALID,134,VALID,0.929688,
2008-01-02, 03:08:00,VALID,916.232,VALID,0,VALID,97.8487,VALID,0.0169808,VALID,18.783,VALID,135,VALID,0.973474,
2008-01-02, 03:09:00,VALID,916.243,VALID,0,VALID,97.8767,VALID,0,VALID,18.7698,VALID,131,VALID,0.762738,
2008-01-02, 03:10:00,VALID,916.246,VALID,0,VALID,97.864,VALID,0.0339617,VALID,18.7464,VALID,130,VALID,0.411337,
2008-01-02, 03:11:00,VALID,916.247,VALID,0,VALID,97.8779,VALID,0.0339617,VALID,18.7175,VALID,130,VALID,0.0234375,
2008-01-02, 03:12:00,VALID,916.251,VALID,0,VALID,98.0674,VALID,-0.0339617,VALID,18.692,VALID,130,VALID,0,
2008-01-02, 03:13:00,VALID,916.241,VALID,0,VALID,98.22,VALID,-0.0679233,VALID,18.7031,VALID,130,VALID,0,
2008-01-02, 03:14:00,VALID,916.234,VALID,0,VALID,98.3281,VALID,-0.101885,VALID,18.7326,VALID,130,VALID,0.352307,
2008-01-02, 03:15:00,VALID,916.21,VALID,0,VALID,98.2632,VALID,-0.0509425,VALID,18.7488,VALID,130,VALID,0.512429,
2008-01-02, 03:16:00,VALID,916.208,VALID,0,VALID,98.276,VALID,-0.0849042,VALID,18.7583,VALID,131,VALID,0.430831,
2008-01-02, 03:17:00,VALID,916.19,VALID,0,VALID,98.2531,VALID,-0.101885,VALID,18.7715,VALID,147,VALID,0.650195,
2008-01-02, 03:18:00,VALID,916.173,VALID,0,VALID,98.1691,VALID,-0.101885,VALID,18.794,VALID,167,VALID,0.555197,
2008-01-02, 03:19:00,VALID,916.174,VALID,0,VALID,98.089,VALID,-0.0679233,VALID,18.7902,VALID,173,VALID,0.770486,
2008-01-02, 03:20:00,VALID,916.161,VALID,0,VALID,98.0369,VALID,-0.0679233,VALID,18.8102,VALID,163,VALID,0.868331,
2008-01-02, 03:21:00,VALID,916.163,VALID,0,VALID,97.9136,VALID,-0.0679233,VALID,18.8037,VALID,166,VALID,0.886624,
2008-01-02, 03:22:00,VALID,916.142,VALID,0,VALID,97.9085,VALID,-0.0679233,VALID,18.7675,VALID,161,VALID,0.823171,
2008-01-02, 03:23:00,VALID,916.129,VALID,0,VALID,97.9937,VALID,-0.0679233,VALID,18.7548,VALID,156,VALID,1.04438,
2008-01-02, 03:24:00,VALID,916.145,VALID,0,VALID,98.0204,VALID,-0.101885,VALID,18.7256,VALID,154,VALID,0.691406,
2008-01-02, 03:25:00,VALID,916.147,VALID,0,VALID,98.0916,VALID,-0.101885,VALID,18.7163,VALID,153,VALID,0.638021,
2008-01-02, 03:26:00,VALID,916.158,VALID,0,VALID,98.1577,VALID,-0.101885,VALID,18.6969,VALID,160,VALID,0.501635,
2008-01-02, 03:27:00,VALID,916.159,VALID,0,VALID,98.2467,VALID,-0.0509425,VALID,18.6867,VALID,160,VALID,0.223366,
2008-01-02, 03:28:00,VALID,916.146,VALID,0,VALID,98.3472,VALID,-0.0849042,VALID,18.6739,VALID,162,VALID,0.647675,
2008-01-02, 03:29:00,VALID,916.143,VALID,0,VALID,98.4082,VALID,-0.0679233,VALID,18.6772,VALID,167,VALID,0.909489,
2008-01-02, 03:30:00,VALID,916.155,VALID,0,VALID,98.4985,VALID,-0.0509425,VALID,18.6869,VALID,173,VALID,0.811942,